Location: Newark
(43.5831°N, 21.3381°E)
Time: 05:59:09
(UTC+00:00)

Envisat - Pass Details

Date: 11 December 2019
Orbit: 764 x 766 km, 98.1° (Epoch: 20 January)

Event Time Altitude Azimuth Distance (km) Brightness Sun altitude
Rises 16:57:36 0° 181° (S) 3,218 6.4 -20.8°
Reaches altitude 10° 16:59:58 10° 188° (S) 2,297 5.7 -21.3°
Maximum altitude 17:04:50 47° 261° (W) 1,016 4.0 -22.1°
Drops below altitude 10° 17:09:45 10° 335° (NNW) 2,313 5.6 -23.0°
Sets 17:12:09 0° 342° (NNW) 3,244 6.4 -23.4°
